Time,TemperatureF,DewpointF,PressureIn,WindDirection,WindDirectionDegrees,WindSpeedMPH,WindSpeedGustMPH,Humidity,HourlyPrecipIn,Conditions,Clouds,dailyrainin,SoftwareType,DateUTC
2013-02-12 00:04:00,46.9,43.9,30.12,North,-999,-999.0,-999.0,89,0.00,,,0.00,open2300-1.11,2013-02-12 05:04:00,
2013-02-12 00:09:00,46.8,43.7,30.11,North,-999,-999.0,-999.0,89,0.00,,,0.00,open2300-1.11,2013-02-12 05:09:00,
2013-02-12 00:14:00,46.8,43.7,30.12,North,-999,-999.0,-999.0,89,0.00,,,0.00,open2300-1.11,2013-02-12 05:14:00,
2013-02-12 00:19:00,46.8,43.7,30.12,North,-999,-999.0,-999.0,89,0.00,,,0.00,open2300-1.11,2013-02-12 05:19:00,
2013-02-12 00:24:00,46.8,43.7,30.12,North,-999,-999.0,-999.0,89,0.00,,,0.00,open2300-1.11,2013-02-12 05:24:00,
2013-02-12 00:29:00,46.8,43.7,30.12,North,-999,-999.0,-999.0,89,0.00,,,0.00,open2300-1.11,2013-02-12 05:29:00,
2013-02-12 00:34:00,46.8,43.7,30.11,North,-999,-999.0,-999.0,89,0.00,,,0.00,open2300-1.11,2013-02-12 05:34:00,
2013-02-12 00:39:00,46.8,43.7,30.11,North,-999,-999.0,-999.0,89,0.00,,,0.00,open2300-1.11,2013-02-12 05:39:00,
2013-02-12 00:44:00,46.8,43.7,30.12,North,-999,-999.0,-999.0,89,0.00,,,0.00,open2300-1.11,2013-02-12 05:44:00,
2013-02-12 00:49:00,46.8,43.7,30.13,North,-999,-999.0,-999.0,89,0.00,,,0.00,open2300-1.11,2013-02-12 05:49:00,
2013-02-12 00:54:00,46.8,43.7,30.13,North,-999,-999.0,-999.0,89,0.00,,,0.00,open2300-1.11,2013-02-12 05:54:00,
2013-02-12 00:59:00,46.8,43.7,30.14,North,-999,-999.0,-999.0,89,0.00,,,0.00,open2300-1.11,2013-02-12 05:59:00,
2013-02-12 01:04:00,46.8,43.7,30.13,North,-999,-999.0,-999.0,89,0.00,,,0.00,open2300-1.11,2013-02-12 06:04:00,
2013-02-12 01:09:00,46.8,43.7,30.13,North,-999,-999.0,-999.0,89,0.00,,,0.00,open2300-1.11,2013-02-12 06:09:00,
2013-02-12 01:14:00,46.8,43.7,30.14,North,-999,-999.0,-999.0,89,0.00,,,0.00,open2300-1.11,2013-02-12 06:14:00,
2013-02-12 01:24:00,46.6,43.6,30.14,North,-999,-999.0,-999.0,89,0.00,,,0.00,open2300-1.11,2013-02-12 06:24:00,
2013-02-12 01:29:00,46.6,43.6,30.13,North,-999,-999.0,-999.0,89,0.00,,,0.00,open2300-1.11,2013-02-12 06:29:00,
2013-02-12 01:34:00,46.6,43.6,30.12,North,-999,-999.0,-999.0,89,0.00,,,0.00,open2300-1.11,2013-02-12 06:34:00,
2013-02-12 01:39:00,46.6,43.6,30.13,North,-999,-999.0,-999.0,89,0.00,,,0.00,open2300-1.11,2013-02-12 06:39:00,
2013-02-12 01:44:00,46.6,43.6,30.13,North,-999,-999.0,-999.0,89,0.00,,,0.00,open2300-1.11,2013-02-12 06:44:00,
2013-02-12 01:49:00,46.6,43.6,30.13,North,-999,-999.0,-999.0,89,0.00,,,0.00,open2300-1.11,2013-02-12 06:49:00,
2013-02-12 01:54:00,46.6,43.6,30.13,North,-999,-999.0,-999.0,89,0.00,,,0.00,open2300-1.11,2013-02-12 06:54:00,
2013-02-12 01:59:00,46.6,43.6,30.13,North,-999,-999.0,-999.0,89,0.00,,,0.00,open2300-1.11,2013-02-12 06:59:00,
2013-02-12 02:04:00,46.6,43.6,30.12,North,-999,-999.0,-999.0,89,0.00,,,0.00,open2300-1.11,2013-02-12 07:04:00,
2013-02-12 02:09:00,46.6,43.6,30.12,North,-999,-999.0,-999.0,89,0.00,,,0.00,open2300-1.11,2013-02-12 07:09:00,
2013-02-12 02:14:00,46.6,43.6,30.11,North,-999,-999.0,-999.0,89,0.00,,,0.00,open2300-1.11,2013-02-12 07:14:00,
2013-02-12 02:19:00,46.4,43.4,30.11,North,-999,-999.0,-999.0,89,0.00,,,0.00,open2300-1.11,2013-02-12 07:19:00,
2013-02-12 02:24:00,46.2,43.2,30.11,North,-999,-999.0,-999.0,89,0.00,,,0.00,open2300-1.11,2013-02-12 07:24:00,
2013-02-12 02:29:00,46.2,43.2,30.10,North,-999,-999.0,-999.0,89,0.00,,,0.00,open2300-1.11,2013-02-12 07:29:00,
2013-02-12 02:34:00,46.2,43.2,30.11,North,-999,-999.0,-999.0,89,0.00,,,0.00,open2300-1.11,2013-02-12 07:34:00,
2013-02-12 02:39:00,46.2,43.2,30.11,North,-999,-999.0,-999.0,89,0.00,,,0.00,open2300-1.11,2013-02-12 07:39:00,
2013-02-12 02:44:00,46.2,43.2,30.11,North,-999,-999.0,-999.0,89,0.00,,,0.00,open2300-1.11,2013-02-12 07:44:00,
2013-02-12 02:49:00,46.2,43.2,30.12,North,-999,-999.0,-999.0,89,0.00,,,0.00,open2300-1.11,2013-02-12 07:49:00,
2013-02-12 02:54:00,46.2,43.2,30.14,North,-999,-999.0,-999.0,89,0.00,,,0.00,open2300-1.11,2013-02-12 07:54:00,
2013-02-12 02:59:00,46.2,43.2,30.14,North,-999,-999.0,-999.0,89,0.00,,,0.00,open2300-1.11,2013-02-12 07:59:00,
2013-02-12 03:04:00,46.2,43.2,30.15,North,-999,-999.0,-999.0,89,0.00,,,0.00,open2300-1.11,2013-02-12 08:04:00,
2013-02-12 03:09:00,46.2,43.2,30.14,North,-999,-999.0,-999.0,89,0.00,,,0.00,open2300-1.11,2013-02-12 08:09:00,
2013-02-12 03:14:00,46.2,42.9,30.14,North,-999,-999.0,-999.0,88,0.00,,,0.00,open2300-1.11,2013-02-12 08:14:00,
2013-02-12 03:19:00,46.2,42.9,30.13,North,-999,-999.0,-999.0,88,0.00,,,0.00,open2300-1.11,2013-02-12 08:19:00,
2013-02-12 03:24:00,46.2,42.9,30.14,North,-999,-999.0,-999.0,88,0.00,,,0.00,open2300-1.11,2013-02-12 08:24:00,
2013-02-12 03:29:00,46.2,42.9,30.13,North,-999,-999.0,-999.0,88,0.00,,,0.00,open2300-1.11,2013-02-12 08:29:00,
2013-02-12 03:34:00,46.0,42.7,30.13,North,-999,-999.0,-999.0,88,0.00,,,0.00,open2300-1.11,2013-02-12 08:34:00,
2013-02-12 03:39:00,46.0,42.7,30.13,North,-999,-999.0,-999.0,88,0.00,,,0.00,open2300-1.11,2013-02-12 08:39:00,
2013-02-12 03:44:00,46.0,42.7,30.14,North,-999,-999.0,-999.0,88,0.00,,,0.00,open2300-1.11,2013-02-12 08:44:00,
2013-02-12 03:49:00,46.0,42.7,30.13,North,-999,-999.0,-999.0,88,0.00,,,0.00,open2300-1.11,2013-02-12 08:49:00,
2013-02-12 03:54:00,46.0,42.7,30.13,North,-999,-999.0,-999.0,88,0.00,,,0.00,open2300-1.11,2013-02-12 08:54:00,
2013-02-12 03:59:00,46.0,42.7,30.13,North,-999,-999.0,-999.0,88,0.00,,,0.00,open2300-1.11,2013-02-12 08:59:00,
2013-02-12 04:04:00,46.0,42.7,30.13,North,-999,-999.0,-999.0,88,0.00,,,0.00,open2300-1.11,2013-02-12 09:04:00,
2013-02-12 04:09:00,46.0,42.7,30.13,North,-999,-999.0,-999.0,88,0.00,,,0.00,open2300-1.11,2013-02-12 09:09:00,
2013-02-12 04:14:00,46.0,43.0,30.11,North,-999,-999.0,-999.0,89,0.00,,,0.00,open2300-1.11,2013-02-12 09:14:00,
2013-02-12 04:19:00,46.0,42.7,30.11,North,-999,-999.0,-999.0,88,0.00,,,0.00,open2300-1.11,2013-02-12 09:19:00,
2013-02-12 04:24:00,45.9,42.8,30.10,North,-999,-999.0,-999.0,89,0.00,,,0.00,open2300-1.11,2013-02-12 09:24:00,
2013-02-12 04:29:00,45.7,42.7,30.10,North,-999,-999.0,-999.0,89,0.00,,,0.00,open2300-1.11,2013-02-12 09:29:00,
2013-02-12 04:34:00,45.7,42.7,30.09,North,-999,-999.0,-999.0,89,0.00,,,0.00,open2300-1.11,2013-02-12 09:34:00,
2013-02-12 04:39:00,45.7,42.7,30.08,North,-999,-999.0,-999.0,89,0.00,,,0.00,open2300-1.11,2013-02-12 09:39:00,
2013-02-12 04:44:00,45.7,42.7,30.09,North,-999,-999.0,-999.0,89,0.00,,,0.00,open2300-1.11,2013-02-12 09:44:00,
2013-02-12 04:49:00,45.7,42.7,30.09,North,-999,-999.0,-999.0,89,0.00,,,0.00,open2300-1.11,2013-02-12 09:49:00,
2013-02-12 04:54:00,45.7,42.7,30.09,North,-999,-999.0,-999.0,89,0.00,,,0.00,open2300-1.11,2013-02-12 09:54:00,
2013-02-12 04:59:00,45.7,42.7,30.10,North,-999,-999.0,-999.0,89,0.00,,,0.00,open2300-1.11,2013-02-12 09:59:00,
2013-02-12 05:04:00,45.7,42.7,30.11,North,-999,-999.0,-999.0,89,0.00,,,0.00,open2300-1.11,2013-02-12 10:04:00,
2013-02-12 05:14:00,45.5,42.5,30.11,North,-999,-999.0,-999.0,89,0.00,,,0.00,open2300-1.11,2013-02-12 10:14:00,
2013-02-12 05:19:00,45.5,42.5,30.11,North,-999,-999.0,-999.0,89,0.00,,,0.00,open2300-1.11,2013-02-12 10:19:00,
2013-02-12 05:24:00,45.5,42.5,30.12,North,-999,-999.0,-999.0,89,0.00,,,0.00,open2300-1.11,2013-02-12 10:24:00,
2013-02-12 05:29:00,45.5,42.5,30.13,North,-999,-999.0,-999.0,89,0.00,,,0.00,open2300-1.11,2013-02-12 10:29:00,
2013-02-12 05:38:00,45.5,42.5,30.13,North,-999,-999.0,-999.0,89,0.00,,,0.00,open2300-1.11,2013-02-12 10:38:00,
2013-02-12 05:43:00,45.3,42.3,30.12,North,-999,-999.0,-999.0,89,0.00,,,0.00,open2300-1.11,2013-02-12 10:43:00,
2013-02-12 05:48:00,45.3,42.3,30.12,North,-999,-999.0,-999.0,89,0.00,,,0.00,open2300-1.11,2013-02-12 10:48:00,
2013-02-12 05:53:00,45.3,42.3,30.13,North,-999,-999.0,-999.0,89,0.00,,,0.00,open2300-1.11,2013-02-12 10:53:00,
2013-02-12 05:58:00,45.1,42.1,30.12,North,-999,-999.0,-999.0,89,0.00,,,0.00,open2300-1.11,2013-02-12 10:58:00,
2013-02-12 06:03:00,45.1,42.1,30.12,North,-999,-999.0,-999.0,89,0.00,,,0.00,open2300-1.11,2013-02-12 11:03:00,
2013-02-12 06:08:00,45.1,42.1,30.13,North,-999,-999.0,-999.0,90,0.00,,,0.00,open2300-1.11,2013-02-12 11:08:00,
2013-02-12 06:13:00,45.0,42.3,30.12,North,-999,-999.0,-999.0,90,0.00,,,0.00,open2300-1.11,2013-02-12 11:13:00,
2013-02-12 06:18:00,45.0,42.3,30.12,North,-999,-999.0,-999.0,90,0.00,,,0.00,open2300-1.11,2013-02-12 11:18:00,
2013-02-12 06:23:00,45.0,42.3,30.12,North,-999,-999.0,-999.0,90,0.00,,,0.00,open2300-1.11,2013-02-12 11:23:00,
2013-02-12 06:28:00,45.0,42.3,30.13,North,-999,-999.0,-999.0,90,0.00,,,0.00,open2300-1.11,2013-02-12 11:28:00,
2013-02-12 06:33:00,45.0,42.3,30.13,North,-999,-999.0,-999.0,90,0.00,,,0.00,open2300-1.11,2013-02-12 11:33:00,
2013-02-12 06:38:00,45.0,42.3,30.13,North,-999,-999.0,-999.0,90,0.00,,,0.00,open2300-1.11,2013-02-12 11:38:00,
2013-02-12 06:43:00,44.8,42.1,30.14,North,-999,-999.0,-999.0,90,0.00,,,0.00,open2300-1.11,2013-02-12 11:43:00,
2013-02-12 06:48:00,44.8,42.1,30.14,North,-999,-999.0,-999.0,90,0.00,,,0.00,open2300-1.11,2013-02-12 11:48:00,
2013-02-12 06:53:00,44.6,41.9,30.13,North,-999,-999.0,-999.0,90,0.00,,,0.00,open2300-1.11,2013-02-12 11:53:00,
2013-02-12 06:58:00,44.6,41.9,30.13,North,-999,-999.0,-999.0,90,0.00,,,0.00,open2300-1.11,2013-02-12 11:58:00,
2013-02-12 07:03:00,44.6,41.9,30.13,North,-999,-999.0,-999.0,90,0.00,,,0.00,open2300-1.11,2013-02-12 12:03:00,
2013-02-12 07:13:00,44.4,41.7,30.14,North,-999,-999.0,-999.0,90,0.00,,,0.00,open2300-1.11,2013-02-12 12:13:00,
2013-02-12 07:18:00,44.4,41.7,30.15,North,-999,-999.0,-999.0,90,0.00,,,0.00,open2300-1.11,2013-02-12 12:18:00,
2013-02-12 07:23:00,44.2,41.5,30.15,North,-999,-999.0,-999.0,90,0.00,,,0.00,open2300-1.11,2013-02-12 12:23:00,
2013-02-12 07:28:00,44.2,41.5,30.15,North,-999,-999.0,-999.0,90,0.00,,,0.00,open2300-1.11,2013-02-12 12:28:00,
2013-02-12 07:33:00,44.2,41.5,30.15,North,-999,-999.0,-999.0,90,0.00,,,0.00,open2300-1.11,2013-02-12 12:33:00,
2013-02-12 07:38:00,44.1,41.4,30.15,North,-999,-999.0,-999.0,90,0.00,,,0.00,open2300-1.11,2013-02-12 12:38:00,
2013-02-12 07:43:00,43.9,41.2,30.15,North,-999,-999.0,-999.0,90,0.00,,,0.00,open2300-1.11,2013-02-12 12:43:00,
2013-02-12 07:48:00,43.9,41.2,30.15,North,-999,-999.0,-999.0,90,0.00,,,0.00,open2300-1.11,2013-02-12 12:48:00,
2013-02-12 07:53:00,43.9,40.9,30.15,North,-999,-999.0,-999.0,89,0.00,,,0.00,open2300-1.11,2013-02-12 12:53:00,
2013-02-12 07:58:00,43.9,40.9,30.14,North,-999,-999.0,-999.0,89,0.00,,,0.00,open2300-1.11,2013-02-12 12:58:00,
2013-02-12 08:08:00,43.9,40.9,30.12,North,-999,-999.0,-999.0,89,0.00,,,0.00,open2300-1.11,2013-02-12 13:08:00,
2013-02-12 08:13:00,43.9,40.9,30.11,North,-999,-999.0,-999.0,89,0.00,,,0.00,open2300-1.11,2013-02-12 13:13:00,
2013-02-12 08:18:00,44.1,41.0,30.11,North,-999,-999.0,-999.0,89,0.00,,,0.00,open2300-1.11,2013-02-12 13:18:00,
2013-02-12 08:23:00,44.2,40.9,30.11,North,-999,-999.0,-999.0,88,0.00,,,0.00,open2300-1.11,2013-02-12 13:23:00,
2013-02-12 08:28:00,44.2,40.9,30.11,North,-999,-999.0,-999.0,88,0.00,,,0.00,open2300-1.11,2013-02-12 13:28:00,
2013-02-12 08:33:00,44.4,40.8,30.11,North,-999,-999.0,-999.0,87,0.00,,,0.00,open2300-1.11,2013-02-12 13:33:00,
2013-02-12 08:38:00,44.4,40.8,30.10,North,-999,-999.0,-999.0,87,0.00,,,0.00,open2300-1.11,2013-02-12 13:38:00,
2013-02-12 08:43:00,44.6,41.0,30.11,North,-999,-999.0,-999.0,87,0.00,,,0.00,open2300-1.11,2013-02-12 13:43:00,
2013-02-12 08:48:00,44.8,41.2,30.12,North,-999,-999.0,-999.0,87,0.00,,,0.00,open2300-1.11,2013-02-12 13:48:00,
2013-02-12 08:53:00,45.1,41.5,30.12,North,-999,-999.0,-999.0,87,0.00,,,0.00,open2300-1.11,2013-02-12 13:53:00,
2013-02-12 08:58:00,45.7,42.1,30.13,North,-999,-999.0,-999.0,87,0.00,,,0.00,open2300-1.11,2013-02-12 13:58:00,
2013-02-12 09:03:00,46.0,42.1,30.13,North,-999,-999.0,-999.0,86,0.00,,,0.00,open2300-1.11,2013-02-12 14:03:00,
2013-02-12 09:08:00,46.8,41.9,30.12,North,-999,-999.0,-999.0,83,0.00,,,0.00,open2300-1.11,2013-02-12 14:08:00,
2013-02-12 09:13:00,47.1,42.2,30.12,North,-999,-999.0,-999.0,83,0.00,,,0.00,open2300-1.11,2013-02-12 14:13:00,
2013-02-12 09:18:00,47.3,41.8,30.13,North,-999,-999.0,-999.0,81,0.00,,,0.00,open2300-1.11,2013-02-12 14:18:00,
2013-02-12 09:23:00,47.3,41.8,30.13,North,-999,-999.0,-999.0,81,0.00,,,0.00,open2300-1.11,2013-02-12 14:23:00,
2013-02-12 09:28:00,47.3,41.8,30.13,North,-999,-999.0,-999.0,81,0.00,,,0.00,open2300-1.11,2013-02-12 14:28:00,
2013-02-12 09:33:00,47.7,41.8,30.13,North,-999,-999.0,-999.0,80,0.00,,,0.00,open2300-1.11,2013-02-12 14:33:00,
2013-02-12 09:38:00,48.6,42.3,30.13,North,-999,-999.0,-999.0,79,0.00,,,0.00,open2300-1.11,2013-02-12 14:38:00,
2013-02-12 09:43:00,49.1,42.1,30.13,North,-999,-999.0,-999.0,77,0.00,,,0.00,open2300-1.11,2013-02-12 14:43:00,
2013-02-12 09:48:00,49.3,42.3,30.12,North,-999,-999.0,-999.0,77,0.00,,,0.00,open2300-1.11,2013-02-12 14:48:00,
2013-02-12 09:53:00,49.6,42.0,30.12,North,-999,-999.0,-999.0,75,0.00,,,0.00,open2300-1.11,2013-02-12 14:53:00,
2013-02-12 09:58:00,50.0,42.3,30.12,North,-999,-999.0,-999.0,75,0.00,,,0.00,open2300-1.11,2013-02-12 14:58:00,
2013-02-12 10:03:00,50.4,42.4,30.11,North,-999,-999.0,-999.0,74,0.00,,,0.00,open2300-1.11,2013-02-12 15:03:00,
2013-02-12 10:08:00,50.9,42.6,30.11,North,-999,-999.0,-999.0,73,0.00,,,0.00,open2300-1.11,2013-02-12 15:08:00,
2013-02-12 10:13:00,50.5,41.5,30.10,North,-999,-999.0,-999.0,71,0.00,,,0.00,open2300-1.11,2013-02-12 15:13:00,
2013-02-12 10:18:00,50.2,41.2,30.10,North,-999,-999.0,-999.0,71,0.00,,,0.00,open2300-1.11,2013-02-12 15:18:00,
2013-02-12 10:23:00,50.0,41.0,30.11,North,-999,-999.0,-999.0,71,0.00,,,0.00,open2300-1.11,2013-02-12 15:23:00,
2013-02-12 10:28:00,49.8,40.8,30.10,North,-999,-999.0,-999.0,71,0.00,,,0.00,open2300-1.11,2013-02-12 15:28:00,
2013-02-12 10:33:00,49.8,40.8,30.11,North,-999,-999.0,-999.0,71,0.00,,,0.00,open2300-1.11,2013-02-12 15:33:00,
2013-02-12 10:38:00,49.8,40.8,30.11,North,-999,-999.0,-999.0,71,0.00,,,0.00,open2300-1.11,2013-02-12 15:38:00,
2013-02-12 10:43:00,50.2,41.2,30.11,North,-999,-999.0,-999.0,71,0.00,,,0.00,open2300-1.11,2013-02-12 15:43:00,
2013-02-12 10:48:00,50.5,41.5,30.11,North,-999,-999.0,-999.0,71,0.00,,,0.00,open2300-1.11,2013-02-12 15:48:00,
2013-02-12 10:53:00,50.7,41.0,30.10,North,-999,-999.0,-999.0,69,0.00,,,0.00,open2300-1.11,2013-02-12 15:53:00,
2013-02-12 10:58:00,50.7,41.0,30.10,North,-999,-999.0,-999.0,69,0.00,,,0.00,open2300-1.11,2013-02-12 15:58:00,
2013-02-12 11:03:00,50.7,41.0,30.10,North,-999,-999.0,-999.0,69,0.00,,,0.00,open2300-1.11,2013-02-12 16:03:00,
2013-02-12 11:08:00,51.1,41.3,30.10,North,-999,-999.0,-999.0,69,0.00,,,0.00,open2300-1.11,2013-02-12 16:08:00,
2013-02-12 11:13:00,51.4,41.7,30.11,North,-999,-999.0,-999.0,69,0.00,,,0.00,open2300-1.11,2013-02-12 16:13:00,
2013-02-12 11:18:00,51.6,41.8,30.12,North,-999,-999.0,-999.0,69,0.00,,,0.00,open2300-1.11,2013-02-12 16:18:00,
2013-02-12 11:23:00,52.2,42.3,30.12,North,-999,-999.0,-999.0,69,0.00,,,0.00,open2300-1.11,2013-02-12 16:23:00,
2013-02-12 11:28:00,52.3,42.1,30.11,North,-999,-999.0,-999.0,68,0.00,,,0.00,open2300-1.11,2013-02-12 16:28:00,
2013-02-12 11:33:00,52.3,42.1,30.12,North,-999,-999.0,-999.0,68,0.00,,,0.00,open2300-1.11,2013-02-12 16:33:00,
2013-02-12 11:38:00,52.3,42.1,30.12,North,-999,-999.0,-999.0,68,0.00,,,0.00,open2300-1.11,2013-02-12 16:38:00,
2013-02-12 11:43:00,52.3,41.7,30.11,North,-999,-999.0,-999.0,67,0.00,,,0.00,open2300-1.11,2013-02-12 16:43:00,
2013-02-12 11:48:00,52.3,41.7,30.11,North,-999,-999.0,-999.0,67,0.00,,,0.00,open2300-1.11,2013-02-12 16:48:00,
2013-02-12 11:53:00,52.3,41.7,30.10,North,-999,-999.0,-999.0,67,0.00,,,0.00,open2300-1.11,2013-02-12 16:53:00,
2013-02-12 11:58:00,52.2,41.5,30.09,North,-999,-999.0,-999.0,67,0.00,,,0.00,open2300-1.11,2013-02-12 16:58:00,
2013-02-12 12:03:00,52.3,41.3,30.08,North,-999,-999.0,-999.0,66,0.00,,,0.00,open2300-1.11,2013-02-12 17:03:00,
2013-02-12 12:08:00,52.2,40.7,30.08,North,-999,-999.0,-999.0,65,0.00,,,0.00,open2300-1.11,2013-02-12 17:08:00,
2013-02-12 12:13:00,52.0,41.4,30.07,North,-999,-999.0,-999.0,67,0.00,,,0.00,open2300-1.11,2013-02-12 17:13:00,
2013-02-12 12:18:00,51.8,41.2,30.08,North,-999,-999.0,-999.0,67,0.00,,,0.00,open2300-1.11,2013-02-12 17:18:00,
2013-02-12 12:23:00,51.6,41.0,30.08,North,-999,-999.0,-999.0,67,0.00,,,0.00,open2300-1.11,2013-02-12 17:23:00,
2013-02-12 12:28:00,51.4,41.2,30.07,North,-999,-999.0,-999.0,68,0.00,,,0.00,open2300-1.11,2013-02-12 17:28:00,
2013-02-12 12:33:00,51.6,41.4,30.08,North,-999,-999.0,-999.0,68,0.00,,,0.00,open2300-1.11,2013-02-12 17:33:00,
2013-02-12 12:38:00,51.6,41.8,30.08,North,-999,-999.0,-999.0,69,0.00,,,0.00,open2300-1.11,2013-02-12 17:38:00,
2013-02-12 12:43:00,51.6,41.8,30.08,North,-999,-999.0,-999.0,69,0.00,,,0.00,open2300-1.11,2013-02-12 17:43:00,
2013-02-12 12:48:00,51.6,41.8,30.07,North,-999,-999.0,-999.0,69,0.00,,,0.00,open2300-1.11,2013-02-12 17:48:00,
2013-02-12 12:53:00,51.6,42.3,30.08,North,-999,-999.0,-999.0,70,0.00,,,0.00,open2300-1.11,2013-02-12 17:53:00,
2013-02-12 12:58:00,51.8,42.4,30.08,North,-999,-999.0,-999.0,70,0.00,,,0.00,open2300-1.11,2013-02-12 17:58:00,
2013-02-12 13:03:00,52.0,42.6,30.08,North,-999,-999.0,-999.0,70,0.00,,,0.00,open2300-1.11,2013-02-12 18:03:00,
2013-02-12 13:08:00,52.0,42.6,30.07,North,-999,-999.0,-999.0,70,0.00,,,0.00,open2300-1.11,2013-02-12 18:08:00,
2013-02-12 13:13:00,52.0,42.2,30.06,North,-999,-999.0,-999.0,69,0.00,,,0.00,open2300-1.11,2013-02-12 18:13:00,
2013-02-12 13:18:00,52.0,42.2,30.06,North,-999,-999.0,-999.0,69,0.00,,,0.00,open2300-1.11,2013-02-12 18:18:00,
2013-02-12 13:23:00,51.8,42.0,30.06,North,-999,-999.0,-999.0,69,0.00,,,0.00,open2300-1.11,2013-02-12 18:23:00,
2013-02-12 13:28:00,51.8,42.0,30.06,North,-999,-999.0,-999.0,69,0.00,,,0.00,open2300-1.11,2013-02-12 18:28:00,
2013-02-12 13:33:00,51.6,42.3,30.06,North,-999,-999.0,-999.0,70,0.00,,,0.00,open2300-1.11,2013-02-12 18:33:00,
2013-02-12 13:38:00,52.0,42.6,30.05,North,-999,-999.0,-999.0,70,0.00,,,0.00,open2300-1.11,2013-02-12 18:38:00,
2013-02-12 13:43:00,52.0,42.6,30.04,North,-999,-999.0,-999.0,70,0.00,,,0.00,open2300-1.11,2013-02-12 18:43:00,
2013-02-12 13:48:00,52.0,42.6,30.05,North,-999,-999.0,-999.0,70,0.00,,,0.00,open2300-1.11,2013-02-12 18:48:00,
2013-02-12 13:53:00,51.8,42.4,30.06,North,-999,-999.0,-999.0,70,0.00,,,0.00,open2300-1.11,2013-02-12 18:53:00,
2013-02-12 13:58:00,51.6,42.3,30.06,North,-999,-999.0,-999.0,70,0.00,,,0.00,open2300-1.11,2013-02-12 18:58:00,
2013-02-12 14:03:00,51.6,42.3,30.05,North,-999,-999.0,-999.0,70,0.00,,,0.00,open2300-1.11,2013-02-12 19:03:00,
2013-02-12 14:08:00,51.6,42.3,30.06,North,-999,-999.0,-999.0,70,0.00,,,0.00,open2300-1.11,2013-02-12 19:08:00,
2013-02-12 14:13:00,51.6,42.3,30.05,North,-999,-999.0,-999.0,70,0.00,,,0.00,open2300-1.11,2013-02-12 19:13:00,
2013-02-12 14:18:00,51.6,42.3,30.06,North,-999,-999.0,-999.0,70,0.00,,,0.00,open2300-1.11,2013-02-12 19:18:00,
2013-02-12 14:23:00,51.6,42.3,30.06,North,-999,-999.0,-999.0,70,0.00,,,0.00,open2300-1.11,2013-02-12 19:23:00,
2013-02-12 14:28:00,51.4,42.4,30.06,North,-999,-999.0,-999.0,71,0.00,,,0.00,open2300-1.11,2013-02-12 19:28:00,
2013-02-12 14:33:00,51.3,42.6,30.06,North,-999,-999.0,-999.0,72,0.00,,,0.00,open2300-1.11,2013-02-12 19:33:00,
2013-02-12 14:38:00,50.9,42.6,30.06,North,-999,-999.0,-999.0,73,0.00,,,0.00,open2300-1.11,2013-02-12 19:38:00,
2013-02-12 14:43:00,50.7,42.4,30.05,North,-999,-999.0,-999.0,73,0.00,,,0.00,open2300-1.11,2013-02-12 19:43:00,
2013-02-12 14:48:00,50.7,42.7,30.03,North,-999,-999.0,-999.0,74,0.00,,,0.00,open2300-1.11,2013-02-12 19:48:00,
2013-02-12 14:53:00,50.4,43.0,30.03,North,-999,-999.0,-999.0,76,0.00,,,0.00,open2300-1.11,2013-02-12 19:53:00,
2013-02-12 14:58:00,50.2,42.9,30.04,North,-999,-999.0,-999.0,76,0.00,,,0.00,open2300-1.11,2013-02-12 19:58:00,
2013-02-12 15:03:00,50.0,43.0,30.03,North,-999,-999.0,-999.0,77,0.00,,,0.00,open2300-1.11,2013-02-12 20:03:00,
2013-02-12 15:08:00,49.8,42.8,30.02,North,-999,-999.0,-999.0,77,0.00,,,0.00,open2300-1.11,2013-02-12 20:08:00,
2013-02-12 15:13:00,49.8,42.8,30.01,North,-999,-999.0,-999.0,77,0.00,,,0.00,open2300-1.11,2013-02-12 20:13:00,
2013-02-12 15:18:00,49.6,43.0,30.01,North,-999,-999.0,-999.0,78,0.00,,,0.00,open2300-1.11,2013-02-12 20:18:00,
2013-02-12 15:23:00,49.6,43.7,30.00,North,-999,-999.0,-999.0,80,0.00,,,0.00,open2300-1.11,2013-02-12 20:23:00,
2013-02-12 15:28:00,49.3,43.7,30.00,North,-999,-999.0,-999.0,81,0.00,,,0.00,open2300-1.11,2013-02-12 20:28:00,
2013-02-12 15:33:00,49.1,43.5,30.00,North,-999,-999.0,-999.0,81,0.00,,,0.00,open2300-1.11,2013-02-12 20:33:00,
2013-02-12 15:38:00,48.9,43.6,29.99,North,-999,-999.0,-999.0,82,0.00,,,0.00,open2300-1.11,2013-02-12 20:38:00,
2013-02-12 15:43:00,48.7,43.8,29.98,North,-999,-999.0,-999.0,83,0.00,,,0.00,open2300-1.11,2013-02-12 20:43:00,
2013-02-12 15:48:00,48.6,43.6,29.99,North,-999,-999.0,-999.0,83,0.00,,,0.00,open2300-1.11,2013-02-12 20:48:00,
2013-02-12 15:53:00,48.2,43.6,29.97,North,-999,-999.0,-999.0,84,0.00,,,0.00,open2300-1.11,2013-02-12 20:53:00,
2013-02-12 15:58:00,48.2,43.6,29.96,North,-999,-999.0,-999.0,84,0.00,,,0.00,open2300-1.11,2013-02-12 20:58:00,
2013-02-12 16:03:00,48.0,43.4,29.96,North,-999,-999.0,-999.0,84,0.00,,,0.00,open2300-1.11,2013-02-12 21:03:00,
2013-02-12 16:08:00,48.0,43.4,29.94,North,-999,-999.0,-999.0,84,0.00,,,0.00,open2300-1.11,2013-02-12 21:08:00,
2013-02-12 16:13:00,48.0,43.4,29.93,North,-999,-999.0,-999.0,84,0.00,,,0.00,open2300-1.11,2013-02-12 21:13:00,
2013-02-12 16:18:00,48.0,43.4,29.94,North,-999,-999.0,-999.0,84,0.00,,,0.00,open2300-1.11,2013-02-12 21:18:00,
2013-02-12 16:23:00,48.0,43.4,29.95,North,-999,-999.0,-999.0,84,0.00,,,0.00,open2300-1.11,2013-02-12 21:23:00,
2013-02-12 16:28:00,48.0,43.4,29.96,North,-999,-999.0,-999.0,84,0.00,,,0.00,open2300-1.11,2013-02-12 21:28:00,
2013-02-12 16:33:00,48.0,43.4,29.96,North,-999,-999.0,-999.0,84,0.00,,,0.00,open2300-1.11,2013-02-12 21:33:00,
2013-02-12 16:38:00,48.0,43.4,29.95,North,-999,-999.0,-999.0,84,0.00,,,0.00,open2300-1.11,2013-02-12 21:38:00,
2013-02-12 16:43:00,48.0,43.4,29.94,North,-999,-999.0,-999.0,84,0.00,,,0.00,open2300-1.11,2013-02-12 21:43:00,
2013-02-12 16:48:00,48.0,43.0,29.94,North,-999,-999.0,-999.0,83,0.00,,,0.00,open2300-1.11,2013-02-12 21:48:00,
2013-02-12 16:53:00,48.0,43.4,29.94,North,-999,-999.0,-999.0,84,0.00,,,0.00,open2300-1.11,2013-02-12 21:53:00,
2013-02-12 16:58:00,47.8,43.2,29.93,North,-999,-999.0,-999.0,84,0.00,,,0.00,open2300-1.11,2013-02-12 21:58:00,
2013-02-12 17:03:00,47.8,43.2,29.96,North,-999,-999.0,-999.0,84,0.00,,,0.00,open2300-1.11,2013-02-12 22:03:00,
2013-02-12 17:08:00,47.8,43.5,29.98,North,-999,-999.0,-999.0,85,0.00,,,0.00,open2300-1.11,2013-02-12 22:08:00,
2013-02-12 17:13:00,47.7,43.4,30.00,North,-999,-999.0,-999.0,85,0.00,,,0.00,open2300-1.11,2013-02-12 22:13:00,
2013-02-12 17:18:00,47.5,43.5,29.99,North,-999,-999.0,-999.0,86,0.00,,,0.00,open2300-1.11,2013-02-12 22:18:00,
2013-02-12 17:23:00,47.5,43.5,29.99,North,-999,-999.0,-999.0,86,0.00,,,0.00,open2300-1.11,2013-02-12 22:23:00,
2013-02-12 17:28:00,47.5,43.5,29.99,North,-999,-999.0,-999.0,86,0.00,,,0.00,open2300-1.11,2013-02-12 22:28:00,
2013-02-12 17:33:00,47.3,43.3,29.98,North,-999,-999.0,-999.0,86,0.00,,,0.00,open2300-1.11,2013-02-12 22:33:00,
2013-02-12 17:38:00,47.3,43.7,29.94,North,-999,-999.0,-999.0,87,0.00,,,0.00,open2300-1.11,2013-02-12 22:38:00,
2013-02-12 17:43:00,47.1,43.8,29.94,North,-999,-999.0,-999.0,88,0.00,,,0.00,open2300-1.11,2013-02-12 22:43:00,
2013-02-12 17:48:00,47.1,43.8,29.94,North,-999,-999.0,-999.0,88,0.00,,,0.00,open2300-1.11,2013-02-12 22:48:00,
2013-02-12 17:53:00,46.9,43.6,29.95,North,-999,-999.0,-999.0,88,0.00,,,0.00,open2300-1.11,2013-02-12 22:53:00,
2013-02-12 17:58:00,46.9,43.6,29.98,North,-999,-999.0,-999.0,88,0.00,,,0.00,open2300-1.11,2013-02-12 22:58:00,
2013-02-12 18:03:00,46.8,43.4,29.97,North,-999,-999.0,-999.0,88,0.00,,,0.00,open2300-1.11,2013-02-12 23:03:00,
2013-02-12 18:08:00,46.8,43.4,29.95,North,-999,-999.0,-999.0,88,0.00,,,0.00,open2300-1.11,2013-02-12 23:08:00,
2013-02-12 18:13:00,46.8,43.4,29.95,North,-999,-999.0,-999.0,88,0.00,,,0.00,open2300-1.11,2013-02-12 23:13:00,
2013-02-12 18:18:00,46.8,43.4,29.95,North,-999,-999.0,-999.0,88,0.00,,,0.00,open2300-1.11,2013-02-12 23:18:00,
2013-02-12 18:23:00,46.6,43.2,29.95,North,-999,-999.0,-999.0,88,0.00,,,0.00,open2300-1.11,2013-02-12 23:23:00,
2013-02-12 18:33:00,46.6,43.2,29.96,North,-999,-999.0,-999.0,88,0.00,,,0.00,open2300-1.11,2013-02-12 23:33:00,
2013-02-12 18:38:00,46.6,43.2,29.96,North,-999,-999.0,-999.0,88,0.00,,,0.00,open2300-1.11,2013-02-12 23:38:00,
2013-02-12 18:43:00,46.6,43.2,29.97,North,-999,-999.0,-999.0,88,0.00,,,0.00,open2300-1.11,2013-02-12 23:43:00,
2013-02-12 18:48:00,46.2,42.9,29.97,North,-999,-999.0,-999.0,88,0.00,,,0.00,open2300-1.11,2013-02-12 23:48:00,
2013-02-12 18:53:00,46.2,42.9,29.99,North,-999,-999.0,-999.0,88,0.00,,,0.00,open2300-1.11,2013-02-12 23:53:00,
2013-02-12 18:58:00,46.2,42.9,29.99,North,-999,-999.0,-999.0,88,0.00,,,0.00,open2300-1.11,2013-02-12 23:58:00,
2013-02-12 19:03:00,46.2,42.9,29.98,North,-999,-999.0,-999.0,88,0.00,,,0.00,open2300-1.11,2013-02-13 00:03:00,
2013-02-12 19:08:00,46.2,43.2,29.96,North,-999,-999.0,-999.0,89,0.00,,,0.00,open2300-1.11,2013-02-13 00:08:00,
2013-02-12 19:13:00,46.2,43.2,29.93,North,-999,-999.0,-999.0,89,0.00,,,0.00,open2300-1.11,2013-02-13 00:13:00,
2013-02-12 19:18:00,46.0,43.0,29.93,North,-999,-999.0,-999.0,89,0.00,,,0.00,open2300-1.11,2013-02-13 00:18:00,
2013-02-12 19:23:00,46.0,43.0,29.95,North,-999,-999.0,-999.0,89,0.00,,,0.00,open2300-1.11,2013-02-13 00:23:00,
2013-02-12 19:28:00,46.0,42.7,29.96,North,-999,-999.0,-999.0,88,0.00,,,0.00,open2300-1.11,2013-02-13 00:28:00,
2013-02-12 19:33:00,46.0,42.7,29.95,North,-999,-999.0,-999.0,88,0.00,,,0.00,open2300-1.11,2013-02-13 00:33:00,
2013-02-12 19:38:00,45.9,42.5,29.97,North,-999,-999.0,-999.0,88,0.00,,,0.00,open2300-1.11,2013-02-13 00:38:00,
2013-02-12 19:43:00,45.9,42.5,29.97,North,-999,-999.0,-999.0,88,0.00,,,0.00,open2300-1.11,2013-02-13 00:43:00,
2013-02-12 19:48:00,45.7,42.4,29.97,North,-999,-999.0,-999.0,88,0.00,,,0.00,open2300-1.11,2013-02-13 00:48:00,
2013-02-12 19:53:00,45.7,42.4,29.97,North,-999,-999.0,-999.0,88,0.00,,,0.00,open2300-1.11,2013-02-13 00:53:00,
2013-02-12 19:58:00,45.7,42.4,29.95,North,-999,-999.0,-999.0,88,0.00,,,0.00,open2300-1.11,2013-02-13 00:58:00,
2013-02-12 20:03:00,45.7,42.4,29.95,North,-999,-999.0,-999.0,88,0.00,,,0.00,open2300-1.11,2013-02-13 01:03:00,
2013-02-12 20:08:00,45.5,42.2,29.95,North,-999,-999.0,-999.0,88,0.00,,,0.00,open2300-1.11,2013-02-13 01:08:00,
2013-02-12 20:13:00,45.3,42.0,29.94,North,-999,-999.0,-999.0,88,0.00,,,0.00,open2300-1.11,2013-02-13 01:13:00,
2013-02-12 20:18:00,45.3,42.0,29.94,North,-999,-999.0,-999.0,88,0.00,,,0.00,open2300-1.11,2013-02-13 01:18:00,
2013-02-12 20:23:00,45.1,41.8,29.95,North,-999,-999.0,-999.0,88,0.00,,,0.00,open2300-1.11,2013-02-13 01:23:00,
2013-02-12 20:28:00,45.1,41.8,29.95,North,-999,-999.0,-999.0,88,0.00,,,0.00,open2300-1.11,2013-02-13 01:28:00,
2013-02-12 20:33:00,45.1,41.8,29.94,North,-999,-999.0,-999.0,88,0.00,,,0.00,open2300-1.11,2013-02-13 01:33:00,
2013-02-12 20:38:00,45.0,41.7,29.93,North,-999,-999.0,-999.0,88,0.00,,,0.00,open2300-1.11,2013-02-13 01:38:00,
2013-02-12 20:43:00,45.0,41.7,29.93,North,-999,-999.0,-999.0,88,0.00,,,0.00,open2300-1.11,2013-02-13 01:43:00,
2013-02-12 20:48:00,45.0,41.7,29.93,North,-999,-999.0,-999.0,88,0.00,,,0.00,open2300-1.11,2013-02-13 01:48:00,
2013-02-12 20:53:00,45.0,42.0,29.94,North,-999,-999.0,-999.0,89,0.00,,,0.00,open2300-1.11,2013-02-13 01:53:00,
2013-02-12 20:58:00,45.0,42.0,29.95,North,-999,-999.0,-999.0,89,0.00,,,0.00,open2300-1.11,2013-02-13 01:58:00,
2013-02-12 21:03:00,45.0,42.0,29.95,North,-999,-999.0,-999.0,89,0.00,,,0.00,open2300-1.11,2013-02-13 02:03:00,
2013-02-12 21:08:00,45.0,42.0,29.95,North,-999,-999.0,-999.0,89,0.00,,,0.00,open2300-1.11,2013-02-13 02:08:00,
2013-02-12 21:13:00,45.0,42.0,29.96,North,-999,-999.0,-999.0,89,0.00,,,0.00,open2300-1.11,2013-02-13 02:13:00,
2013-02-12 21:18:00,44.8,41.8,29.96,North,-999,-999.0,-999.0,89,0.00,,,0.00,open2300-1.11,2013-02-13 02:18:00,
2013-02-12 21:23:00,44.8,41.8,29.97,North,-999,-999.0,-999.0,89,0.00,,,0.00,open2300-1.11,2013-02-13 02:23:00,
2013-02-12 21:28:00,44.8,41.8,29.96,North,-999,-999.0,-999.0,89,0.00,,,0.00,open2300-1.11,2013-02-13 02:28:00,
2013-02-12 21:33:00,44.8,42.1,29.95,North,-999,-999.0,-999.0,90,0.00,,,0.00,open2300-1.11,2013-02-13 02:33:00,
2013-02-12 21:38:00,44.8,42.1,29.94,North,-999,-999.0,-999.0,90,0.00,,,0.00,open2300-1.11,2013-02-13 02:38:00,
2013-02-12 21:43:00,44.8,42.1,29.94,North,-999,-999.0,-999.0,90,0.00,,,0.00,open2300-1.11,2013-02-13 02:43:00,
2013-02-12 21:48:00,44.6,41.9,29.93,North,-999,-999.0,-999.0,90,0.00,,,0.00,open2300-1.11,2013-02-13 02:48:00,
2013-02-12 21:53:00,44.6,41.9,29.92,North,-999,-999.0,-999.0,90,0.00,,,0.00,open2300-1.11,2013-02-13 02:53:00,
2013-02-12 21:58:00,44.6,41.9,29.92,North,-999,-999.0,-999.0,90,0.00,,,0.00,open2300-1.11,2013-02-13 02:58:00,
2013-02-12 22:08:00,44.4,41.7,29.90,North,-999,-999.0,-999.0,90,0.00,,,0.00,open2300-1.11,2013-02-13 03:08:00,
2013-02-12 22:13:00,44.4,41.7,29.91,North,-999,-999.0,-999.0,90,0.00,,,0.00,open2300-1.11,2013-02-13 03:13:00,
2013-02-12 22:18:00,44.4,41.7,29.91,North,-999,-999.0,-999.0,90,0.00,,,0.00,open2300-1.11,2013-02-13 03:18:00,
2013-02-12 22:23:00,44.4,41.7,29.91,North,-999,-999.0,-999.0,90,0.00,,,0.00,open2300-1.11,2013-02-13 03:23:00,
2013-02-12 22:28:00,44.4,41.7,29.91,North,-999,-999.0,-999.0,90,0.00,,,0.00,open2300-1.11,2013-02-13 03:28:00,
2013-02-12 22:33:00,44.6,41.9,29.89,North,-999,-999.0,-999.0,90,0.00,,,0.00,open2300-1.11,2013-02-13 03:33:00,
2013-02-12 22:38:00,44.6,41.9,29.88,North,-999,-999.0,-999.0,90,0.00,,,0.00,open2300-1.11,2013-02-13 03:38:00,
2013-02-12 22:43:00,44.8,42.1,29.88,North,-999,-999.0,-999.0,90,0.00,,,0.00,open2300-1.11,2013-02-13 03:43:00,
2013-02-12 22:48:00,44.6,41.9,29.89,North,-999,-999.0,-999.0,90,0.00,,,0.00,open2300-1.11,2013-02-13 03:48:00,
2013-02-12 22:53:00,44.8,42.1,29.90,North,-999,-999.0,-999.0,90,0.00,,,0.00,open2300-1.11,2013-02-13 03:53:00,
2013-02-12 22:58:00,44.8,42.1,29.89,North,-999,-999.0,-999.0,90,0.00,,,0.00,open2300-1.11,2013-02-13 03:58:00,
2013-02-12 23:03:00,44.8,42.1,29.89,North,-999,-999.0,-999.0,90,0.00,,,0.00,open2300-1.11,2013-02-13 04:03:00,
2013-02-12 23:08:00,44.8,41.8,29.88,North,-999,-999.0,-999.0,89,0.00,,,0.00,open2300-1.11,2013-02-13 04:08:00,
2013-02-12 23:13:00,44.8,41.8,29.88,North,-999,-999.0,-999.0,89,0.00,,,0.00,open2300-1.11,2013-02-13 04:13:00,
2013-02-12 23:18:00,44.8,41.8,29.89,North,-999,-999.0,-999.0,89,0.00,,,0.00,open2300-1.11,2013-02-13 04:18:00,
2013-02-12 23:23:00,44.8,41.8,29.90,North,-999,-999.0,-999.0,89,0.00,,,0.00,open2300-1.11,2013-02-13 04:23:00,
2013-02-12 23:28:00,44.8,41.8,29.89,North,-999,-999.0,-999.0,89,0.00,,,0.00,open2300-1.11,2013-02-13 04:28:00,
2013-02-12 23:33:00,44.8,41.8,29.89,North,-999,-999.0,-999.0,89,0.00,,,0.00,open2300-1.11,2013-02-13 04:33:00,
2013-02-12 23:38:00,44.8,41.8,29.89,North,-999,-999.0,-999.0,89,0.00,,,0.00,open2300-1.11,2013-02-13 04:38:00,
2013-02-12 23:43:00,44.8,41.8,29.89,North,-999,-999.0,-999.0,89,0.00,,,0.00,open2300-1.11,2013-02-13 04:43:00,
2013-02-12 23:48:00,44.8,41.8,29.88,North,-999,-999.0,-999.0,89,0.00,,,0.00,open2300-1.11,2013-02-13 04:48:00,
2013-02-12 23:53:00,44.8,41.8,29.88,North,-999,-999.0,-999.0,89,0.00,,,0.00,open2300-1.11,2013-02-13 04:53:00,
2013-02-12 23:58:00,44.8,42.1,29.88,North,-999,-999.0,-999.0,90,0.00,,,0.00,open2300-1.11,2013-02-13 04:58:00,